Terug naar catalogus

DELTA 1 DEB

ActiefPO
NORAD 21448·DEBRIS·🇺🇸 United States

Gelanceerd Jun 12, 1975 vanaf Vandenberg Space Force Base

Loading…

Volgende Passages (komende 24 uur)

TLE

VersSource: Space-Track

Epoch: Sep 14, 2026, 14:24 UTC

1 21448U 75052EG  26257.60062726 -.00000015  00000-0  62565-4 0  9994
2 21448  99.6477 303.3000 0129112 317.6678 209.8596 13.18254381701313

Volg DELTA 1 DEB in realtime met AllMySat

Download on the App Store